Rexburg, ID

3:16 AM MST on November 23, 2017 (GMT -0700)
Rexburg-Madison County

Weather History for KRXE - June, 2014

Change the Weather History Date:

Friday, June 6, 2014

  Actual Average Record
Temperature  
Mean Temperature 59 °F 58 °F  
Max Temperature 76 °F 72 °F 88 °F (2006)
Min Temperature 41 °F 44 °F 39 °F (2005)
Degree Days  
Heating Degree Days 6 8  
Month to date heating degree days 27 49  
Since 1 June heating degree days 27 49  
Since 1 July heating degree days 7664 8007  
Cooling Degree Days 0 0  
Month to date cooling degree days 0 0  
Year to date cooling degree days 0 4  
Since 1 June cooling degree days 0 0  
Growing Degree Days 8 (Base 50)    
Moisture  
Dew Point 33 °F    
Average Humidity 44    
Maximum Humidity 70    
Minimum Humidity 17    
Precipitation  
Precipitation T in 0.06 in 0.60 in (2011)
Month to date precipitation T 0.39  
Year to date precipitation 5.05 6.26  
Sea Level Pressure  
Sea Level Pressure 29.86 in    
Wind  
Wind Speed 7 mph (SE)    
Max Wind Speed 32 mph    
Max Gust Speed 47 mph    
Visibility 10 miles    
Events      
T = Trace of Precipitation, MM = Missing Value Source: NWS Daily Summary

Daily Weather History Graph

Daily Weather History Graph

Search for Another Location

Airport or City:

Trip Planner

Search our weather history database for the weather conditions in past years. The results will help you decide how hot, cold, wet, or windy it might be!

Date:

Astronomy

Jun. 06, 2014 Rise Set
Actual Time 5:45 AM MDT 9:06 PM MDT
Civil Twilight 5:10 AM MDT 9:42 PM MDT
Nautical Twilight 4:23 AM MDT 10:28 PM MDT
Astronomical Twilight 3:26 AM MDT 11:26 PM MDT
Moon 2:16 PM MDT (6/6) 1:52 AM MDT (6/6)
Length of Visible Light 16h 31m
Length of Day
15h 20m
First Quarter, 59% of the Moon is Illuminated
Jun 6
First Quarter
Jun 12
Full
Jun 19
Last Quarter
Jun 27
New
Jul 5
First Quarter

Hourly Weather History & Observations

Time (MDT) Temp. Windchill Dew Point Humidity Pressure Visibility Wind Dir Wind Speed Gust Speed Precip Events Conditions
12:53 AM 57.0 °F - 28.0 °F 33% 29.82 in 10.0 mi SW 6.9 mph - N/A   Clear
1:53 AM 52.0 °F - 30.0 °F 43% 29.83 in 10.0 mi SSW 4.6 mph - N/A   Clear
2:53 AM 50.0 °F - 30.0 °F 46% 29.85 in 10.0 mi South 4.6 mph - N/A   Clear
3:53 AM 48.0 °F - 32.0 °F 54% 29.86 in 10.0 mi Calm Calm - N/A   Clear
4:53 AM 44.1 °F 42.5 °F 34.0 °F 68% 29.88 in 10.0 mi ENE 3.5 mph - N/A   Clear
5:53 AM 42.1 °F 40.2 °F 33.1 °F 70% 29.90 in 10.0 mi NE 3.5 mph - N/A   Clear
6:53 AM 44.1 °F - 33.1 °F 65% 29.91 in 10.0 mi Calm Calm - N/A   Clear
7:53 AM 50.0 °F - 35.1 °F 57% 29.91 in 10.0 mi NNE 3.5 mph - N/A   Clear
9:53 AM 61.0 °F - 32.0 °F 34% 29.89 in 10.0 mi SSW 6.9 mph - N/A   Clear
10:53 AM 66.0 °F - 32.0 °F 28% 29.87 in 10.0 mi SW 10.4 mph - N/A   Clear
11:53 AM 69.1 °F - 36.0 °F 30% 29.87 in 10.0 mi SW 12.7 mph - N/A   Clear
12:53 PM 71.1 °F - 28.9 °F 21% 29.86 in 10.0 mi WSW 8.1 mph - N/A   Clear
1:53 PM 73.9 °F - 27.0 °F 18% 29.85 in 10.0 mi SW 10.4 mph - N/A   Clear
3:53 PM 73.0 °F - 27.0 °F 18% 29.82 in 10.0 mi East 4.6 mph - N/A   Overcast
4:53 PM 75.0 °F - 28.9 °F 18% 29.81 in 10.0 mi SSW 9.2 mph - N/A   Mostly Cloudy
5:53 PM 73.0 °F - 28.0 °F 19% 29.81 in 10.0 mi WSW 13.8 mph - 0.00 in   Mostly Cloudy
6:53 PM 71.1 °F - 33.1 °F 25% 29.81 in 10.0 mi NE 8.1 mph - N/A   Mostly Cloudy
7:53 PM 68.0 °F - 39.0 °F 35% 29.84 in 10.0 mi NE 13.8 mph - N/A   Partly Cloudy
8:53 PM 63.0 °F - 39.0 °F 41% 29.84 in 10.0 mi ENE 9.2 mph - N/A   Clear
9:53 PM 59.0 °F - 41.0 °F 51% 29.87 in 10.0 mi ENE 10.4 mph - N/A   Clear
10:53 PM 55.0 °F - 41.0 °F 59% 29.89 in 10.0 mi NNE 9.2 mph - N/A   Partly Cloudy
11:53 PM 52.0 °F - 39.9 °F 63% 29.90 in 10.0 mi East 4.6 mph - N/A   Clear